Orbital Elements at Epoch 2459200.5 (2020-Dec-17.0) TDB
Reference: JPL 1 (heliocentric ecliptic J2000)
Element | Value | Uncertainty (1-sigma) | Units |
e | .471215607013045 | 0.0004845 | |
a | 1.898599846136376 | 0.0017432 | au |
q | 1.003949967164349 | 2.0457e-06 | au |
i | 8.659459397374654 | 0.0063598 | deg |
node | 192.8240270715242 | 0.00034301 | deg |
peri | 191.671080078571 | 0.0030665 | deg |
M | 298.8516203220078 | 0.41061 | deg |
tp | 2459362.804679580823 (2021-May-28.30467958) | 1.3134 | TDB |
period | 955.5393774420074 2.62 | 1.316 0.003603 | d yr |
n | .3767505646535731 | 0.00051887 | deg/d |
Q | 2.793249725108402 | 0.0025646 | au |
|
| | Orbit Determination Parameters
Additional Information
|